Weather History for KFMM - October, 2012

Change the Weather History Date:

Saturday, October 6, 2012

  Actual Average (KAKO) Record (KAKO)
Temperature  
Mean Temperature 30 °F 54 °F  
Max Temperature 34 °F 68 °F 90 °F (2007)
Min Temperature 26 °F 40 °F 18 °F (1952)
Degree Days  
Heating Degree Days 35    
Month to date heating degree days  
Cooling Degree Days 0    
Month to date cooling degree days  
Moisture  
Dew Point 30 °F    
Average Humidity 93    
Maximum Humidity 100    
Minimum Humidity 83    
Precipitation  
Precipitation 0.00 in 0.04 in 0.34 in (1992)
Month to date precipitation 0.25  
Year to date precipitation 14.90  
Sea Level Pressure  
Sea Level Pressure 30.29 in    
Wind  
Wind Speed 9 mph ()    
Max Wind Speed 18 mph    
Max Gust Speed 21 mph    
Visibility 7.0 miles    
Events Rain    
T = Trace of Precipitation, MM = Missing Value Source: Averaged Metar Reports

Daily Weather History Graph

Daily Weather History Graph

Search for Another Location

Airport or City:

Trip Planner

Search our weather history database for the weather conditions in past years. The results will help you decide how hot, cold, wet, or windy it might be!

Date:

Astronomy

Oct. 06, 2012 Rise Set
Actual Time 6:57 AM MDT 6:28 PM MDT
Civil Twilight 6:29 AM MDT 6:55 PM MDT
Nautical Twilight 5:58 AM MDT 7:27 PM MDT
Astronomical Twilight 5:26 AM MDT 7:58 PM MDT
Moon 10:45 PM MDT (10/6) 12:54 PM MDT (10/6)
Length of Visible Light 12h 25m
Length of Day
11h 31m
Waning Gibbous, 65% of the Moon is Illuminated
Oct 6
Waning Gibbous
Oct 8
Last Quarter
Oct 15
New
Oct 21
First Quarter
Oct 29
Full

Hourly Weather History & Observations

Time (MDT) Temp. Windchill Dew Point Humidity Pressure Visibility Wind Dir Wind Speed Gust Speed Precip Events Conditions
12:15 AM 32.2 °F 24.4 °F 31.6 °F 98% 30.28 in 10.0 mi East 9.2 mph - N/A   Overcast
12:35 AM 32.2 °F 25.0 °F 31.5 °F 97% 30.28 in 10.0 mi East 8.1 mph - N/A   Overcast
12:55 AM 32.2 °F 23.8 °F 31.8 °F 99% 30.28 in 10.0 mi East 10.4 mph - N/A   Overcast
1:15 AM 32.2 °F 25.0 °F 32.0 °F 99% 30.28 in 4.0 mi East 8.1 mph - N/A   Overcast
1:35 AM 32.4 °F 24.6 °F 32.0 °F 99% 30.28 in 1.2 mi ENE 9.2 mph - N/A   Overcast
1:55 AM 32.2 °F 23.8 °F 32.0 °F 99% 30.27 in 1.8 mi ENE 10.4 mph - N/A   Drizzle
2:15 AM 32.4 °F 24.0 °F 32.0 °F 99% 30.26 in 3.0 mi East 10.4 mph - N/A   Drizzle
2:35 AM 32.4 °F 24.0 °F 32.0 °F 99% 30.26 in 3.0 mi East 10.4 mph - N/A Rain Light Rain
2:55 AM 32.2 °F 22.7 °F 32.0 °F 99% 30.25 in 2.5 mi ENE 12.7 mph - N/A Rain Light Rain
3:35 AM 32.2 °F 23.2 °F 32.0 °F 99% 30.24 in 2.5 mi ENE 11.5 mph - N/A   Drizzle
3:55 AM 32.0 °F 23.0 °F 32.0 °F 100% 30.24 in 2.5 mi ENE 11.5 mph - N/A Rain Light Rain
4:35 AM 32.0 °F 24.2 °F 31.8 °F 99% 30.24 in 2.0 mi ENE 9.2 mph - N/A Rain Rain
4:55 AM 32.0 °F 23.6 °F 32.0 °F 100% 30.23 in 1.8 mi ENE 10.4 mph - N/A Rain Rain
5:15 AM 32.0 °F 23.6 °F 31.8 °F 99% 30.24 in 2.5 mi NE 10.4 mph - N/A Rain Heavy Rain
5:55 AM 32.0 °F 23.0 °F 31.8 °F 99% 30.25 in 4.0 mi NNE 11.5 mph - N/A Rain Rain
6:15 AM 32.0 °F 23.0 °F 31.6 °F 99% 30.26 in 5.0 mi NE 11.5 mph - N/A Rain Heavy Rain
6:35 AM 32.0 °F 23.0 °F 31.6 °F 99% 30.26 in 4.0 mi NE 11.5 mph - N/A Rain Heavy Rain
6:55 AM 31.8 °F 22.8 °F 31.5 °F 99% 30.24 in 4.0 mi ENE 11.5 mph - N/A Rain Light Freezing Rain
7:15 AM 31.6 °F 22.1 °F 31.1 °F 98% 30.25 in 5.0 mi NE 12.7 mph - N/A Rain Light Freezing Rain
7:35 AM 31.6 °F 22.6 °F 31.1 °F 98% 30.26 in 4.0 mi NE 11.5 mph - N/A Rain Light Freezing Rain
7:55 AM 31.6 °F 22.1 °F 31.1 °F 98% 30.26 in 2.0 mi ENE 12.7 mph - N/A Rain Light Freezing Rain
8:15 AM 31.6 °F 22.6 °F 31.1 °F 98% 30.26 in 4.0 mi NE 11.5 mph - N/A Rain Light Freezing Rain
8:35 AM 31.8 °F 22.3 °F 31.1 °F 97% 30.26 in 2.0 mi ENE 12.7 mph - N/A Rain Light Freezing Rain
8:55 AM 32.0 °F 22.1 °F 31.1 °F 96% 30.27 in 2.5 mi NE 13.8 mph - N/A Rain Rain
9:35 AM 32.0 °F 21.6 °F 31.5 °F 98% 30.28 in 2.0 mi ENE 15.0 mph 19.6 mph N/A Rain Rain
9:55 AM 32.0 °F 22.1 °F 31.3 °F 97% 30.28 in 2.5 mi ENE 13.8 mph - N/A Rain Light Rain
10:15 AM 32.2 °F 23.2 °F 31.5 °F 97% 30.28 in 1.8 mi ENE 11.5 mph - N/A Rain Light Rain
10:35 AM 32.0 °F 21.6 °F 30.9 °F 96% 30.30 in 3.0 mi NNE 15.0 mph 20.7 mph N/A Rain Rain
10:55 AM 32.0 °F 21.6 °F 31.1 °F 96% 30.31 in 1.8 mi NE 15.0 mph - N/A Rain Rain
11:15 AM 32.0 °F 21.6 °F 30.7 °F 95% 30.31 in 3.0 mi NE 15.0 mph - N/A Rain Light Rain
11:35 AM 32.4 °F 20.9 °F 30.7 °F 94% 30.32 in 7.0 mi NE 18.4 mph - N/A Rain Light Rain
11:55 AM 32.5 °F 21.5 °F 30.2 °F 91% 30.32 in 10.0 mi ENE 17.3 mph - N/A   Overcast
12:15 PM 33.4 °F 22.7 °F 30.4 °F 89% 30.32 in 10.0 mi ENE 17.3 mph - N/A   Overcast
12:35 PM 33.8 °F 23.5 °F 30.6 °F 88% 30.32 in 10.0 mi NE 16.1 mph - N/A   Mostly Cloudy
12:55 PM 32.9 °F 22.8 °F 30.2 °F 90% 30.32 in 10.0 mi NE 15.0 mph - N/A   Overcast
1:15 PM 32.4 °F 22.5 °F 30.0 °F 91% 30.32 in 7.0 mi NE 13.8 mph - N/A   Overcast
1:35 PM 33.1 °F 22.6 °F 29.8 °F 88% 30.32 in 10.0 mi NE 16.1 mph 20.7 mph N/A   Overcast
1:55 PM 33.4 °F 23.9 °F 29.7 °F 86% 30.31 in 10.0 mi NE 13.8 mph 18.4 mph N/A   Overcast
2:15 PM 34.0 °F 25.0 °F 30.4 °F 87% 30.32 in 10.0 mi NE 12.7 mph 16.1 mph N/A   Overcast
2:35 PM 33.3 °F 25.1 °F 29.1 °F 85% 30.32 in 10.0 mi East 10.4 mph - N/A   Overcast
2:55 PM 32.9 °F 25.9 °F 29.3 °F 87% 30.32 in 10.0 mi NE 8.1 mph - N/A   Overcast
3:15 PM 32.9 °F 25.9 °F 28.6 °F 84% 30.32 in 10.0 mi ENE 8.1 mph - N/A   Overcast
3:35 PM 32.9 °F 26.7 °F 28.4 °F 84% 30.32 in 10.0 mi ENE 6.9 mph - N/A   Overcast
3:55 PM 32.5 °F 27.1 °F 27.9 °F 83% 30.32 in 10.0 mi NNE 5.8 mph - N/A   Overcast
4:15 PM 32.9 °F 26.7 °F 28.4 °F 84% 30.32 in 10.0 mi East 6.9 mph - N/A   Overcast
4:35 PM 32.4 °F 26.9 °F 28.4 °F 85% 30.32 in 10.0 mi East 5.8 mph - N/A   Overcast
4:55 PM 32.4 °F 27.9 °F 28.2 °F 85% 30.32 in 10.0 mi East 4.6 mph - N/A   Overcast
5:15 PM 32.0 °F 26.4 °F 28.0 °F 85% 30.32 in 10.0 mi ESE 5.8 mph - N/A   Overcast
5:35 PM 32.0 °F 24.8 °F 28.4 °F 87% 30.32 in 10.0 mi ESE 8.1 mph - N/A   Overcast
5:55 PM 32.0 °F 24.2 °F 28.0 °F 85% 30.32 in 10.0 mi ESE 9.2 mph - N/A   Overcast
6:15 PM 32.0 °F 25.6 °F 28.0 °F 85% 30.32 in 10.0 mi ESE 6.9 mph - N/A   Overcast
6:35 PM 32.0 °F 25.6 °F 28.0 °F 85% 30.32 in 10.0 mi ESE 6.9 mph - N/A   Mostly Cloudy
6:55 PM 31.1 °F 25.4 °F 28.0 °F 88% 30.32 in 10.0 mi SE 5.8 mph - N/A   Mostly Cloudy
7:15 PM 30.0 °F 26.5 °F 27.1 °F 89% 30.32 in 10.0 mi ESE 3.5 mph - N/A   Scattered Clouds
7:35 PM 28.4 °F 24.6 °F 26.4 °F 92% 30.32 in 10.0 mi East 3.5 mph - N/A   Clear
7:55 PM 29.5 °F 25.9 °F 27.7 °F 93% 30.32 in 10.0 mi SE 3.5 mph - N/A   Clear
8:15 PM 28.8 °F - 27.3 °F 94% 30.32 in 10.0 mi Calm Calm - N/A   Clear
8:35 PM 28.8 °F - 27.1 °F 94% 30.32 in 10.0 mi Calm Calm - N/A   Clear
8:55 PM 28.8 °F - 27.3 °F 94% 30.32 in 10.0 mi Calm Calm - N/A   Clear
9:15 PM 28.8 °F - 27.3 °F 94% 30.32 in 10.0 mi Calm Calm - N/A   Clear
9:35 PM 28.4 °F - 27.1 °F 95% 30.32 in 10.0 mi Calm Calm - N/A   Clear
9:55 PM 28.4 °F 24.6 °F 27.3 °F 96% 30.30 in 10.0 mi SE 3.5 mph - N/A   Clear
10:15 PM 27.1 °F - 25.2 °F 92% 30.30 in 10.0 mi Calm Calm - N/A   Clear
10:55 PM 27.0 °F 23.0 °F 25.7 °F 95% 30.29 in 10.0 mi South 3.5 mph - N/A   Clear
11:15 PM 26.1 °F 21.9 °F 24.8 °F 95% 30.28 in 10.0 mi South 3.5 mph - N/A   Clear
11:35 PM 26.1 °F - 24.8 °F 95% 30.28 in 10.0 mi Calm Calm - N/A   Clear
11:55 PM 26.4 °F - 25.3 °F 96% 30.28 in 10.0 mi Calm Calm - N/A   Clear